• MPC Preparation (Info)

  • MPEC 2022-C93 : 2022 CN1

    The following Minor Planet Electronic Circular may be linked-to from your own Web pages, but must not otherwise be redistributed electronically.

    A form allowing access to any MPEC is at the bottom of this page.


    Read MPEC 2022-C92 Read MPEC 2022-C94


    M.P.E.C. 2022-C93                              Issued 2022 February 6, 02:13 UT
    
         The Minor Planet Electronic Circulars contain information on unusual
             minor planets and routine data on comets.  They are published
        on behalf of Division F of the International Astronomical Union by the
              Minor Planet Center, Smithsonian Astrophysical Observatory,
                              Cambridge, MA 02138, U.S.A.
    
                 Prepared using the Tamkin Foundation Computer Network
    
                                  MPC@CFA.HARVARD.EDU
                URL https://www.minorplanetcenter.net/    ISSN 1523-6714
    
                                    2022 CN1                                 
    
    
    Observations:
         K22C01N  C2022 01 13.50689 13 00 53.18 -10 26 45.2          21.6 GVEC093G96
         K22C01N  C2022 01 13.51121 13 00 54.89 -10 26 20.5          21.3 GVEC093G96
         K22C01N  C2022 01 13.51553 13 00 56.70 -10 25 55.6          22.3 GVEC093G96
         K22C01N  C2022 01 13.51985 13 00 58.41 -10 25 32.6          21.5 GVEC093G96
         K22C01N* C2022 02 04.52355215 27 37.27 +24 21 56.7          19.99GVEC093G96
         K22C01N  C2022 02 04.52780215 27 38.66 +24 22 14.3          20.58GVEC093G96
         K22C01N  C2022 02 04.53205315 27 40.06 +24 22 32.8          20.41GVEC093G96
         K22C01N  C2022 02 04.53629715 27 41.48 +24 22 50.6          20.26GVEC093G96
         K22C01N mC2022 02 04.54525615 27 44.49 +24 23 29.5          20.16GVEC093I52
         K22C01N mC2022 02 04.54585015 27 44.58 +24 23 31.5          20.36GVEC093I52
         K22C01N mC2022 02 04.54644415 27 44.82 +24 23 34.8          20.32GVEC093I52
         K22C01N mC2022 02 04.54703715 27 45.00 +24 23 37.1          20.37GVEC093I52
         K22C01N  C2022 02 04.55495615 27 47.60 +24 24 11.4          19.98GVEC093G96
         K22C01N  C2022 02 04.55536915 27 47.69 +24 24 12.3          20.16GVEC093G96
         K22C01N  C2022 02 04.55578415 27 47.82 +24 24 14.4          19.37GVEC093G96
         K22C01N  C2022 02 04.55620215 27 47.98 +24 24 16.4          20.45GVEC093G96
         K22C01N 1C2022 02 05.18041 15 31 19.47 +25 07 55.6          20.5 VVEC093033
         K22C01N 1C2022 02 05.18115 15 31 19.74 +25 07 59.1          20.4 VVEC093033
         K22C01N 1C2022 02 05.18190 15 31 19.98 +25 08 02.1          20.2 VVEC093033
         K22C01N 1C2022 02 05.18272 15 31 20.25 +25 08 05.6          20.3 VVEC093033
         K22C01N KC2022 02 05.47346 15 32 57.84 +25 28 12.7          20.5 RqEC093H36
         K22C01N KC2022 02 05.49361 15 33 04.40 +25 29 36.2          20.4 RqEC093H36
         K22C01N KC2022 02 05.50115 15 33 06.79 +25 30 07.2          20.0 RqEC093H36
         K22C01N KC2022 02 06.03791515 36 06.05 +26 06 09.5          20.2 GXEC093I93
         K22C01N KC2022 02 06.04420715 36 08.14 +26 06 34.4          20.4 GXEC093I93
         K22C01N KC2022 02 06.05030115 36 10.15 +26 06 59.8          20.6 GXEC093I93
         K22C01N KC2022 02 06.06206615 36 13.93 +26 07 49.2          20.6 GVEC093104
         K22C01N KC2022 02 06.06756815 36 15.73 +26 08 11.6          20.6 GVEC093104
         K22C01N KC2022 02 06.07306915 36 17.47 +26 08 33.5          20.3 GVEC093104
    
    Observer details:
    033 Karl Schwarzschild Observatory, Tautenburg.  Observers S. Melnikov, C.
        Hoegner, U. Laux, F. Ludwig, B. Stecklum.  Measurer B. Stecklum.  1.34-m
        f/3 Schmidt + CCD.
    104 San Marcello Pistoiese.  Observers P. Bacci, M. Maestripieri, M. D.
        Grazia.  Measurers P. Bacci, L. Tesi, G. Fagioli.  0.60-m reflector + CCD.
    G96 Mt. Lemmon Survey.  Observers G. J. Leonard, E. J. Christensen.  Measurers
        B. Gray, D. Rankin, F. C. Shelly, E. J. Christensen, G. A. Farneth, J. B.
        Fazekas, D. C. Fuls, A. R. Gibbs, A. D. Grauer, H. Groeller, R. A.
        Kowalski, S. M. Larson, G. J. Leonard, R. L. Seaman, A. Serrano, K. W.
        Wierzchos.  1.5-m reflector + 10K CCD.
    H36 Sandlot Observatory, Scranton.  Observer G. Hug.  0.56-m reflector + CCD.
    I52 Steward Observatory, Mt. Lemmon Station.  Observers A. Serrano, K. W.
        Wierzchos.  Measurers E. J. Christensen, G. A. Farneth, J. B. Fazekas, D.
        C. Fuls, A. R. Gibbs, A. D. Grauer, H. Groeller, R. A. Kowalski, S. M.
        Larson, G. J. Leonard, D. Rankin, R. L. Seaman, A. Serrano, F. C. Shelly,
        K. W. Wierzchos.
    I93 St Pardon de Conques.  Observer F. Losse.  0.40-m f/3.7 reflector + CCD.
    
    Orbital elements:
    2022 CN1                                            PHA, Earth MOID = 0.0440 AU
    Epoch 2022 Jan. 21.0 TT = JDT 2459600.5                 Veres                   
    M 359.52390              (2000.0)            P               Q                  
    n   0.64773463     Peri.    6.83582     -0.68745605     -0.62558646             
    a   1.3229334      Node   127.45289     +0.64236687     -0.76073284             
    e   0.2233611      Incl.   27.68592     +0.33877572     +0.17299461             
    P   1.52           H   21.03          G   0.15           U   8                  
    Residuals in seconds of arc
    220113 G96  0.3+  0.2-    220204 I52  0.4+  0.3+    220205 H36  0.2-  0.0
    220113 G96  0.5-  0.1-    220204 I52  0.2+  0.1+    220205 H36  0.6+  0.3+
    220113 G96  0.2+  0.3+    220204 G96  0.1+  0.5+    220205 H36  0.1+  0.3+
    220113 G96 (0.7-  1.3-)   220204 G96  0.4-  0.5-    220206 I93  0.7-  0.6+
    220204 G96  0.1-  0.5+    220204 G96  0.5-  0.1-    220206 I93  0.4-  0.1-
    220204 G96  0.1-  0.1-    220204 G96  0.2-  0.1+    220206 I93  0.2-  0.5+
    220204 G96  0.1-  0.1+    220205 033  0.3-  0.3-    220206 104  0.2+  0.0
    220204 G96  0.2+  0.4-    220205 033  0.1+  0.1+    220206 104  0.3+  0.1+
    220204 I52 (1.2+  0.1+)   220205 033  0.0   0.0     220206 104  0.3-  0.3-
    220204 I52  0.3-  0.4-    220205 033  0.0   0.0
    
    Ephemeris:
    2022 CN1                 a,e,i = 1.32, 0.22, 28                  q = 1.0274
    Date    TT    R. A. (2000) Decl.     Delta      r    Elong.  Phase     V
    2022 01 07    12 16 10.0 -19 37 05   0.2527  1.0342    94.5    71.4    20.6
    ...
    2022 01 22    14 00 51.7 +03 59 39   0.2244  1.0274    94.8    72.6    20.4
    ...
    2022 01 30    14 54 23.2 +17 01 13   0.2405  1.0296    93.9    72.7    20.5
    ...
    2022 02 05    15 30 17.9 +24 55 35   0.2639  1.0338    93.0    72.3    20.7
    2022 02 06    15 35 51.6 +26 03 53   0.2685  1.0347    92.8    72.1    20.8
    2022 02 07    15 41 17.8 +27 09 14   0.2733  1.0356    92.7    72.0    20.8
    ...
    2022 02 13    16 11 17.2 +32 44 03   0.3044  1.0427    91.9    71.1    21.0
    ...
    2022 02 21    16 44 34.3 +38 08 21   0.3495  1.0551    91.1    69.6    21.3
    ...
    2022 03 08    17 29 10.4 +44 34 59   0.4328  1.0870    90.6    65.9    21.7
    
    M. P. C. Staff               (C) Copyright 2022 MPC           M.P.E.C. 2022-C93
    


    Read MPEC 2022-C92 Read MPEC 2022-C94


    MPEC number:

    Enter an MPEC number in one of the following forms:

    • 1997-B01 (the full form)
    • J97B01 (the packed version of the full form)
    • B01 (the abbreviated form)